Simultaneous Nadir Overpasses (SNOs) Predictions

Prediction of SNOs between AQUA and METOP-B Satellite Orbit:

Table of predicted SNOs for the next 14.0 days since TLE Epoch: 7/20/2018
Index Date (AQUA) Time (AQUA) Lat,Lon (AQUA) SZA (AQUA ) Date (METOP-B) Time (METOP-B) Lat,Lon (METOP-B) SZA (METOP-B ) Distance(km) Time Diff (sec)
1 07/23/2018 05:38:15 -73.93, -90.44 126.08 07/23/2018 05:37:44 -73.95, -90.51 126.05 3.39 31
2 07/23/2018 06:27:44 74.04, 76.95 54.05 07/23/2018 06:28:23 74.01, 76.96 54.01 3.42 39
3 07/26/2018 01:12:36 -73.94, -24.06 125.47 07/26/2018 01:12:04 -73.94, -24.13 125.46 2.11 32
4 07/26/2018 02:02:04 74.00, 143.44 54.61 07/26/2018 02:02:43 73.99, 143.33 54.60 3.74 39
5 07/28/2018 20:46:57 -73.96, 42.31 124.81 07/28/2018 20:46:23 -73.98, 42.37 124.79 2.54 34
6 07/28/2018 21:36:25 74.02,-150.19 55.27 07/28/2018 21:37:02 74.02,-150.18 55.27 0.32 37
7 07/31/2018 16:21:16 -73.93, 108.78 124.16 07/31/2018 16:20:42 -73.96, 108.75 124.12 3.42 34
8 07/31/2018 17:10:44 73.99, -83.71 55.92 07/31/2018 17:11:21 74.01, -83.82 55.93 3.41 37
9 08/03/2018 11:55:37 -73.96, 175.13 123.41 08/03/2018 11:55:02 -73.95, 175.12 123.42 1.61 35
10 08/03/2018 12:45:05 74.02, -17.36 56.67 08/03/2018 12:45:40 74.04, -17.33 56.68 1.86 35




NCC Satellite Simultaneous Nadir Overpasses (SNOs) Prediction Service
